Regional Weather Roundup
Issued by NWS

Home | Current Version | Previous Version | Graphics & Text | Print | Product List | Glossary On
Versions: 1 2 3 4 5 6 7 8 9 10 11 12 13 14 15 16 17 18 19 20 21 22 23 24 25 26 27 28 29 30 31 32 33 34 35 36 37 38 39 40 41 42 43 44 45 46 47 48 49 50
000
ASUS43 KMPX 241801
RWRMN
WEATHER ROUNDUP FOR MINNESOTA
NATIONAL WEATHER SERVICE TWIN CITIES/CHANHASSEN MN
100 PM CDT TUE APR 24 2018


NOTE: "FAIR" INDICATES FEW OR NO CLOUDS BELOW 12,000 FEET WITH NO
SIGNIFICANT WEATHER AND/OR OBSTRUCTIONS TO VISIBILITY. N/A MEANS
CURRENT SKY AND/OR WEATHER CONDITIONS ARE NOT AVAILABLE.

MNZ060>063-068>070-241900-
   Twin Cities Metro

CITY           SKY/WX    TMP DP  RH WIND       PRES   REMARKS
TWIN CITIES    PTSUNNY   64  33  31 N18G25    30.16S
6HR MIN TEMP:  45; 6HR MAX TEMP:  66;

ST PAUL        PTSUNNY   63  34  33 N14G23    30.16S
CRYSTAL        FAIR      61  31  32 N18G24    30.17S
BLAINE         PTSUNNY   61  32  33 N16G25    30.18S
LAKEVILLE      PTSUNNY   64  37  36 N15       30.15R
EDEN PRAIRIE   FAIR      60  34  37 N15       30.16R
6HR MIN TEMP:  43; 6HR MAX TEMP:  63;

SOUTH ST PAUL  PTSUNNY   63  31  29 N17G25    30.15S
LAKE ELMO      FAIR      61  34  36 N13G22    30.16S
$$
MNZ001>005-007-008-013>017-022>024-027-028-241900-
   Northwest Minnesota

CITY           SKY/WX    TMP DP  RH WIND       PRES   REMARKS
BEMIDJI        FAIR      51  26  38 NW14G25   30.28F
HALLOCK        FAIR      48  25  40 N18G30    30.39S
ROSEAU         FAIR      43  30  61 N16G22    30.35R
WARROAD        FAIR      43  27  52 NW16      30.35S
THIEF RVR FALL FAIR      47  27  45 N18G26    30.35F
CROOKSTON      FAIR      48  34  57 N21G26    30.38S
FOSSTON        FAIR      48  30  49 NW17      30.34S
DETROIT LAKES  FAIR      50  32  50 N9G24     30.33S
MOORHEAD       FAIR      48  36  61 N18G24    30.37S
PARK RAPIDS    FAIR      51  27  39 N13G22    30.28F
MAHNOMEN       FAIR      49  32  50 N22       30.33S
$$
MNZ006-009>011-018-025>026-241900-
   North Central Minnesota

CITY           SKY/WX    TMP DP  RH WIND       PRES   REMARKS
BAUDETTE       FAIR      39  25  57 N16       30.33S
FLAG ISLAND    PTSUNNY   34  21  60 NW12      30.36F WCI  25
INTL FALLS     PTSUNNY   45  28  51 N15G25    30.28R
6HR MIN TEMP:  39; 6HR MAX TEMP:  46;

WASKISH        CLOUDY    48  28  46 NW12G18   30.29S
BIG FORK       FAIR      52  25  35 NW5G16    30.25S
LONGVILLE      FAIR      50  30  46 W10G20    30.27F
GRAND RAPIDS   FAIR      48  29  47 NW14      30.26F
CRANE LAKE     FAIR      45  27  49 NW7G20    30.26S
ORR            FAIR      48  21  34 NW14      30.22S
COOK           FAIR      48  28  46 W10G22    30.23F
WALKER         FAIR      50  24  36 N12G21    30.27F
$$
MNZ012-019>021-037-241900-
   Northeast Minnesota

CITY           SKY/WX    TMP DP  RH WIND       PRES   REMARKS
DULUTH         CLOUDY    49  34  56 NW10      30.21S
6HR MIN TEMP:  40; 6HR MAX TEMP:  50;

ELY            FAIR      48  27  43 W13G20    30.20F
HIBBING        FAIR      49  29  46 NW14      30.22F
EVELETH        FAIR      49  30  46 NW8       30.23F
DULUTH HARBOR  PTSUNNY   45  32  61 N3        30.24S
TWO HARBORS    FAIR      52  36  54 CALM      30.20S
SILVER BAY     PTSUNNY   50  30  46 CALM      30.19F
GRAND MARAIS     N/A     42  30  62 W3        30.19F
G MARAIS ARPRT CLOUDY    46  25  42 W7        30.17F
$$
MNZ029>031-032-039>041-046>048-054>057-064-241900-
   West Central Minnesota

CITY           SKY/WX    TMP DP  RH WIND       PRES   REMARKS
FERGUS FALLS   FAIR      48  36  61 N10G18    30.31S
WHEATON        CLOUDY    46  39  76 N14       30.36S
MORRIS         DRIZZLE   45  41  87 N14G20    30.30S
ALEXANDRIA     CLOUDY    47  39  74 N12       30.29S
ELBOW LAKE     PTSUNNY   44  37  77 N13       30.32S
WADENA         FAIR      48  36  61 N12G20    30.29S
GLENWOOD       FAIR      45  41  87 N13G18    30.29R
APPLETON       LGT RAIN  46  43  87 N17       30.30R
BENSON         RAIN      46  41  81 NE15G23   30.31R
ORTONVILLE     LGT RAIN  45  39  81 N15       30.32S
WILLMAR        FAIR      52  41  66 N15       30.28R
$$
MNZ033>034-036-042>043-049>051-058-059-241900-
   Central Minnesota

CITY           SKY/WX    TMP DP  RH WIND       PRES   REMARKS
ST CLOUD       CLOUDY    54  38  54 N14G22    30.22F
6HR MIN TEMP:  42; 6HR MAX TEMP:  54;

SAUK CENTRE    DRIZZLE   44  40  84 N12G20    30.27S
PAYNESVILLE    PTSUNNY   51  42  70 N13G21    30.25S
AITKIN         CLOUDY    43  36  75 N7        30.25S
PINE RIVER     FAIR      46  30  53 N7        30.30S
BRAINERD       CLOUDY    44  36  73 N12       30.28S
STAPLES        FAIR      46  36  66 N9        30.28F
LONG PRAIRIE   FAIR      45  37  76 NW12      30.27F
LITTLE FALLS   DRIZZLE   46  34  61 NW8       30.26S
LITCHFIELD     FAIR      57  37  47 N17G24    30.23S
BUFFALO        FAIR      57  32  38 N13G20    30.21F
MAPLE LAKE     FAIR      56  37  49 N13G22    30.22F
HUTCHINSON     FAIR      56  38  49 N17G25    30.22S
$$
MNZ037-044-045-052-053-241900-
   East Central Minnesota

CITY           SKY/WX    TMP DP  RH WIND       PRES   REMARKS
PRINCETON      FAIR      55  34  44 N13G20    30.22F
MORA           FAIR      54  32  43 N7        30.23S
CAMBRIDGE      FAIR      59  37  44 N12G18    30.21F
RUSH CITY      PTSUNNY   56  34  42 N9        30.20F
MOOSE LAKE     LGT RAIN  50  32  50 N10       30.21S
HINCKLEY       CLOUDY    54  32  43 N12       30.21S
CLOQUET        LGT RAIN  48  32  53 N10       30.22S
MCGREGOR       CLOUDY    45  36  70 N8        30.25F
$$
MNZ071>073-080-081-089-090-097-098-241900-
   Southwest Minnesota

CITY           SKY/WX    TMP DP  RH WIND       PRES   REMARKS
MONTEVIDEO     LGT RAIN  46  43  87 NE12      30.29R
GRANITE FALLS  LGT RAIN  51  43  72 N14G23    30.28S
CANBY          LGT RAIN  47  43  84 N14G22    30.30S
MARSHALL       LGT RAIN  49  41  74 N15       30.28R
REDWOOD FALLS  CLOUDY    54  37  52 N16G22    30.23R
OLIVIA         CLOUDY    54  41  62 N21G28    30.23S
PIPESTONE      DRIZZLE  N/A N/A N/A NE17G25   30.23S
WINDOM         PTSUNNY   55  34  44 N22       30.20S
WORTHINGTON    CLOUDY    54  41  61 N21G29    30.20F
JACKSON        PTSUNNY   54  43  66 N12G20    30.19F
TRACY          CLOUDY    50  42  73 N18G25    30.25R
SLAYTON        CLOUDY    48  41  75 N22       30.23F
$$
MNZ065>067-074>077-082>085-091>093-241900-
   South Central Minnesota

CITY           SKY/WX    TMP DP  RH WIND       PRES   REMARKS
MANKATO        FAIR      60  41  49 N17       30.15F
NEW ULM        CLOUDY    55  36  47 N16G23    30.18S
ST JAMES       CLOUDY    55  43  62 NW17      30.19F
FAIRMONT       CLOUDY    55  45  68 NW17      30.16F
GLENCOE        FAIR      58  37  46 N16G25    30.19S
OWATONNA       FAIR      64  50  59 NW21      30.13R
WASECA         FAIR      63  46  55 NW18      30.15F
ALBERT LEA     FAIR      64  39  39 NW7       30.12F
$$
MNZ078>079-086>088-094>096-241900-
   Southeast Minnesota

CITY           SKY/WX    TMP DP  RH WIND       PRES   REMARKS
ROCHESTER      PTSUNNY   67  40  37 CALM      30.10F
6HR MIN TEMP:  44; 6HR MAX TEMP:  68;

RED WING       PTSUNNY   64  32  29 N10       30.10R
STANTON        CLOUDY    63  39  40 N17G23    30.12R
DODGE CENTER   FAIR      64  41  42 N7        30.11F
WINONA         FAIR      70  36  28 NW8         N/A
AUSTIN         FAIR      66  41  39 NW8       30.11F
PRESTON        FAIR      66  37  33 N8        30.09F
$$
ABBREVIATIONS USED IN REMARKS
   TC - TEMPERATURES IN CELSIUS
  WCI - WIND CHILL INDEX
   HX - HEAT INDEX
  VSB - VISIBILITY
$$




USA.gov is the U.S. government's official web portal to all federal, state and local government web resources and services.